Regional Weather Roundup
Issued by NWS Huntsville, AL

Current Version | Previous Version | Text Only | Print | Product List | Glossary On
Versions: 1 2 3 4 5 6 7 8 9 10 11 12 13 14 15 16 17 18 19 20 21 22 23 24 25 26 27 28 29 30 31 32 33 34 35 36 37 38 39 40 41 42 43 44 45 46 47 48 49 50
000
ASUS44 KHUN 031110
RWRHUN

WEATHER ROUNDUP FOR THE TENNESSEE VALLEY
NATIONAL WEATHER SERVICE HUNTSVILLE AL
500 AM CST SAT DEC 03 2016

ALZ001>004-031200-
NORTHWEST ALABAMA

CITY           SKY/WX    TMP DP  RH WIND       PRES   REMARKS
COURTLAND HCN    N/A     36 N/A N/A CALM        N/A
RUSSELLVILLE     N/A     36 N/A N/A MISG        N/A
SHOALS AIRPORT CLOUDY    43  32  65 NE5       30.33R
SHOALS TVA RES   N/A     45 N/A N/A MISG        N/A
$$

ALZ005>007-016-031200-
NORTH CENTRAL ALABAMA

CITY           SKY/WX    TMP DP  RH WIND       PRES   REMARKS
CULLMAN AG STN   N/A     41 N/A N/A CALM        N/A
DECATUR AP     MOCLDY    38  36  92 N5        30.32R WCI  34
HUNTSVILLE AP  PTCLDY    40  34  79 N5        30.30R
MERIDIANVILLE  CLEAR     36  32  87 CALM      30.32R
REDSTONE ARSN  CLOUDY    39  33  77 NE5       30.30R
VINEMONT AP    FAIR      37  34  89 CALM      30.30S
$$

ALZ008>010-031200-
NORTHEAST ALABAMA

CITY           SKY/WX    TMP DP  RH WIND       PRES   REMARKS
ALBERTVILLE    PTCLDY    37  37 100 N5        30.27R WCI  34
FORT PAYNE     NOT AVBL
SCOTTSBORO AP  CLEAR     32  32 100 CALM      30.32R
SCOTTSBORO HCN   N/A     32 N/A N/A MISG        N/A
VALLEY HEAD      N/A     30 N/A N/A MISG        N/A
$$

TNZ076-096-097-031200-
SOUTHEASTERN MIDDLE TENNESSEE

CITY           SKY/WX    TMP DP  RH WIND       PRES   REMARKS
TULLAHOMA      CLEAR     37  28  70 CALM      30.31R
WINCHESTER     CLEAR     34  30  86 CALM      30.31R
$$

...SURROUNDING SITES...

CITY           SKY/WX    TMP DP  RH WIND       PRES   REMARKS
ATLANTA        MOCLDY    42  32  67 W5        30.26R
ANNISTON       PTCLDY    40  36  86 E5        30.28
BIRMINGHAM     CLOUDY    44  38  79 S3        30.30
CHATTANOOGA    PTCLDY    40  31  70 CALM      30.30
CORINTH        FAIR      43  34  70 N5        30.31S
DALTON         CLEAR     37  32  81 NW8       30.29R WCI  31
GADSDEN        CLOUDY    35  34  96 N3        30.30R
GOLDEN TRNGL   CLOUDY    45  36  70 N5        30.23S
HALEYVILLE     FAIR      43  32  65 NE3       30.30S
JACKSON TN     CLOUDY    43  33  68 E5        30.35R
MEMPHIS        NOT AVBL
NASHVILLE      CLOUDY    38  30  73 N5        30.35R WCI  34
OXFORD MS      FAIR      45  32  61 NE7       30.28F
ROME           CLEAR     32  29  88 CALM      30.28
SAVANNAH       PTCLDY    37  37 100 CALM      30.32S
TUPELO         CLOUDY    43  36  76 N6        30.28F
TUSCALOOSA     CLOUDY    45  39  79 N7        30.27
$$

...GULF COAST WEATHER...

CITY           SKY/WX    TMP DP  RH WIND       PRES   REMARKS
GULFPORT       CLOUDY    54  43  66 NE9       30.15R
PASCAGOULA     CLOUDY    51  43  74 N5        30.17R
MOBILE         CLOUDY    51  43  74 NE10      30.17F
GULF SHORES    CLOUDY    58  38  48 E13G26    30.15F
PENSACOLA      CLOUDY    59  36  42 E16       30.16F
PANAMA CITY    CLOUDY    53  36  52 E5        30.20R
$$




USA.gov is the U.S. government's official web portal to all federal, state and local government web resources and services.